WetterOnline ( https://www.wetteronline.de )

Wetter aktuell Mühldorf

Aktuelles Wetter: Mühldorf am Inn (410m)

6-stündlich | Neueste Meldungen
Ortszeit Temperatur Wetter
Sa, 15.08. 20:00 21.0° C bewölkt
Sa, 15.08. 14:00 25.4° C wolkig
Sa, 15.08. 8:00 17.5° C bewölkt
Sa, 15.08. 2:00 17.4° C leicht bewölkt
Fr, 14.08. 20:00 21.5° C wolkig
Fr, 14.08. 14:00 25.7° C leicht bewölkt
Fr, 14.08. 8:00 17.6° C bewölkt
Fr, 14.08. 2:00 15.1° C wolkig
Ortszeit Temperatur Wetter
Sa, 15.08. 22:00 18.2° C Nebel
Sa, 15.08. 21:50 18.2° C Nebel
Sa, 15.08. 21:40 18.6° C bedeckt
Sa, 15.08. 21:30 18.9° C wolkig
Sa, 15.08. 21:20 18.9° C wolkig
Sa, 15.08. 21:10 18.9° C wolkig
Sa, 15.08. 21:00 19.3° C wolkig
Sa, 15.08. 20:30 19.9° C bewölkt
Sa, 15.08. 20:00 21.0° C bewölkt
Sa, 15.08. 19:30 21.4° C bedeckt
Sa, 15.08. 19:00 21.3° C bewölkt
Ortszeit Relative Feuchte Sichtweite
Sa, 15.08. 20:00 86% 30 km
Sa, 15.08. 14:00 59% 55 km
Sa, 15.08. 8:00 93% 21 km
Sa, 15.08. 2:00 89% 35 km
Fr, 14.08. 20:00 71% 50 km
Fr, 14.08. 14:00 51% 40 km
Fr, 14.08. 8:00 92% 14 km
Fr, 14.08. 2:00 96% 15 km
Ortszeit Relative Feuchte Sichtweite
Sa, 15.08. 22:00 96% 0.3 km
Sa, 15.08. 21:50 96% -
Sa, 15.08. 21:40 97% -
Sa, 15.08. 21:30 96% 5.0 km
Sa, 15.08. 21:20 96% -
Sa, 15.08. 21:10 96% -
Sa, 15.08. 21:00 96% 4.8 km
Sa, 15.08. 20:30 93% 8 km
Sa, 15.08. 20:00 86% 30 km
Sa, 15.08. 19:30 83% 35 km
Sa, 15.08. 19:00 82% 35 km
Ortszeit Niederschlagsmenge Niederschlagsart
Sa, 15.08. 20:00 5 l/m2 in 12 Std. Regenschauer
Sa, 15.08. 14:00 0.0 l/m2 in 6 Std. -
Sa, 15.08. 8:00 0.0 l/m2 in 12 Std. -
Sa, 15.08. 2:00 0.0 l/m2 in 6 Std. -
Fr, 14.08. 20:00 0.0 l/m2 in 12 Std. -
Fr, 14.08. 14:00 0.0 l/m2 in 6 Std. -
Fr, 14.08. 8:00 0.0 l/m2 in 12 Std. -
Fr, 14.08. 2:00 0.0 l/m2 in 6 Std. -
Ortszeit Niederschlagsmenge Niederschlagsart
Sa, 15.08. 22:00 0.0 l/m2 in 1 Std. -
Sa, 15.08. 21:50 keine Meldung -
Sa, 15.08. 21:40 keine Meldung -
Sa, 15.08. 21:30 0.0 l/m2 in 1 Std. -
Sa, 15.08. 21:20 keine Meldung -
Sa, 15.08. 21:10 keine Meldung -
Sa, 15.08. 21:00 0.0 l/m2 in 1 Std. -
Sa, 15.08. 20:30 0.0 l/m2 in 1 Std. -
Sa, 15.08. 20:00 0.0 l/m2 in 1 Std. Regenschauer
Sa, 15.08. 19:30 0.0 l/m2 in 1 Std. -
Sa, 15.08. 19:00 0.0 l/m2 in 1 Std. -
Ortszeit Stärke Spitze Richtung
km/h Bft. km/h Grad Sektor
Sa, 15.08. 20:00 4 1 36 140° SO
Sa, 15.08. 14:00 15 3 26 260° W
Sa, 15.08. 8:00 4 1 14 280° W
Sa, 15.08. 2:00 7 2 14 250° W
Fr, 14.08. 20:00 4 1 29 360° N
Fr, 14.08. 14:00 6 1 19 360° N
Fr, 14.08. 8:00 0 0 7 - -
Fr, 14.08. 2:00 4 1 14 340° N
Ortszeit Stärke Spitze Richtung
km/h Bft. km/h Grad Sektor
Sa, 15.08. 22:00 2 1 6 230° SW
Sa, 15.08. 21:50 2 1 - 230° SW
Sa, 15.08. 21:40 2 1 - 40° NO
Sa, 15.08. 21:30 4 1 4 40° NO
Sa, 15.08. 21:20 4 1 - 40° NO
Sa, 15.08. 21:10 4 1 - 40° NO
Sa, 15.08. 21:00 0 0 4 - -
Sa, 15.08. 20:30 4 1 4 70° O
Sa, 15.08. 20:00 4 1 7 140° SO
Sa, 15.08. 19:30 2 1 6 130° SO
Sa, 15.08. 19:00 4 1 7 240° SW
Ortszeit Untergrenze Bedeckung Gattung
total tief tief mittel hoch
Sa, 15.08. 20:00 3000 m 8/8 7/8 - - -
Sa, 15.08. 14:00 1020 m 5/8 5/8 - - -
Sa, 15.08. 8:00 1440 m 7/8 7/8 - - -
Sa, 15.08. 2:00 1500 m 4/8 4/8 - - -
Fr, 14.08. 20:00 3300 m 8/8 1/8 - - -
Fr, 14.08. 14:00 1200 m 2/8 2/8 - - -
Fr, 14.08. 8:00 2700 m 8/8 7/8 - - -
Fr, 14.08. 2:00 9000 m 7/8 0/8 - - -
Ortszeit Bedeckungsgrad in Achtel und Wolkenuntergrenze
Sa, 15.08. 22:00 7(3900m) 7(9000m)
Sa, 15.08. 21:50 7(3900m) 7(9000m)
Sa, 15.08. 21:40 8(3900m) 8(8700m)
Sa, 15.08. 21:30 1(660m) 8(3900m) 8(8700m)
Sa, 15.08. 21:20 1(660m) 8(3900m) 8(8700m)
Sa, 15.08. 21:10 2(660m) 8(3600m) 8(8700m)
Sa, 15.08. 21:00 3(690m) 8(3600m) 8(8700m)
Sa, 15.08. 20:30 5(3600m) 8(8700m) 8(8400m)
Sa, 15.08. 20:00 1(3000m) 7(3900m) 8(8700m)
Sa, 15.08. 19:30 8(3900m) 8(8700m) 8(8700m)
Sa, 15.08. 19:00 7(4200m) 8(8700m)
Ortszeit Luftdruck NN (hPa) Tendenz (hPa in 3 Std.)
Sa, 15.08. 20:00 1013 0,0
Sa, 15.08. 14:00 1013 - 1,2
Sa, 15.08. 8:00 1015 + 0,3
Sa, 15.08. 2:00 1015 + 0,6
Fr, 14.08. 20:00 1013 + 1,2
Fr, 14.08. 14:00 1013 - 1,0
Fr, 14.08. 8:00 1015 + 0,4
Fr, 14.08. 2:00 1016 - 0,4
Ortszeit Luftdruck NN (hPa) Tendenz (hPa in 3 Std.)
Sa, 15.08. 22:00 1014 + 0,6
Sa, 15.08. 21:50 1014 keine Meldung
Sa, 15.08. 21:40 1014 keine Meldung
Sa, 15.08. 21:30 1014 + 0,6
Sa, 15.08. 21:20 1014 keine Meldung
Sa, 15.08. 21:10 1014 keine Meldung
Sa, 15.08. 21:00 1014 + 0,3
Sa, 15.08. 20:30 1014 + 0,1
Sa, 15.08. 20:00 1013 0,0
Sa, 15.08. 19:30 1013 0,0
Sa, 15.08. 19:00 1013 - 0,2
Ortszeit Schneehöhe (cm)
Sa, 15.08. 20:00 -
Sa, 15.08. 14:00 -
Sa, 15.08. 8:00 -
Sa, 15.08. 2:00 -
Fr, 14.08. 20:00 -
Fr, 14.08. 14:00 -
Fr, 14.08. 8:00 -
Fr, 14.08. 2:00 -
Ortszeit Schneehöhe (cm)
Sa, 15.08. 22:00 -
Sa, 15.08. 21:50 -
Sa, 15.08. 21:40 -
Sa, 15.08. 21:30 -
Sa, 15.08. 21:20 -
Sa, 15.08. 21:10 -
Sa, 15.08. 21:00 -
Sa, 15.08. 20:30 -
Sa, 15.08. 20:00 -
Sa, 15.08. 19:30 -
Sa, 15.08. 19:00 -
Link zu dieser Seite / Seite empfehlen

Das Wetter in ...